Vicksburg, LA

1:00 AM CST on February 18, 2018 (GMT -0600)
Vicksburg Tallulah Regional

Weather History for KTVR - October, 2011

Change the Weather History Date:

Saturday, October 22, 2011

  Actual Average Record
Temperature  
Mean Temperature 57 °F 64 °F  
Max Temperature 73 °F 77 °F 89 °F (2003)
Min Temperature 40 °F 50 °F 29 °F (1976)
Degree Days  
Heating Degree Days 8 4  
Month to date heating degree days 83 48  
Since 1 July heating degree days 84 53  
Cooling Degree Days 0 3  
Month to date cooling degree days 54 92  
Year to date cooling degree days 2545 2189  
Growing Degree Days 6 (Base 50)    
Moisture  
Dew Point 44 °F    
Average Humidity 64    
Maximum Humidity 96    
Minimum Humidity 31    
Precipitation  
Precipitation T in 0.17 in 1.83 in (1990)
Month to date precipitation 0.35 3.39  
Year to date precipitation 27.45 42.85  
Sea Level Pressure  
Sea Level Pressure 30.16 in    
Wind  
Wind Speed 3 mph (SE)    
Max Wind Speed 9 mph    
Max Gust Speed 13 mph    
Visibility 10 miles    
Events Rain    
T = Trace of Precipitation, MM = Missing Value Source: NWS Daily Summary

Daily Weather History Graph

Daily Weather History Graph

Search for Another Location

Airport or City:

Trip Planner

Search our weather history database for the weather conditions in past years. The results will help you decide how hot, cold, wet, or windy it might be!

Date:

Astronomy

Oct. 22, 2011 Rise Set
Actual Time 7:12 AM CDT 6:23 PM CDT
Civil Twilight 6:48 AM CDT 6:48 PM CDT
Nautical Twilight 6:19 AM CDT 7:17 PM CDT
Astronomical Twilight 5:50 AM CDT 7:45 PM CDT
Moon 2:26 AM CDT (10/22) 3:28 PM CDT (10/22)
Length of Visible Light 12h 00m
Length of Day
11h 10m
Waning Crescent, 23% of the Moon is Illuminated
Oct 22
Waning Crescent
Oct 26
New
Nov 2
First Quarter
Nov 10
Full
Nov 18
Last Quarter

Hourly Weather History & Observations

Time (CDT) Temp. Windchill Dew Point Humidity Pressure Visibility Wind Dir Wind Speed Gust Speed Precip Events Conditions
12:53 AM 46.0 °F - 42.1 °F 86% 30.18 in 10.0 mi Calm Calm - N/A   Clear
2:53 AM 46.9 °F - 43.0 °F 86% 30.19 in 10.0 mi Calm Calm - N/A   Mostly Cloudy
3:53 AM 44.1 °F - 41.0 °F 89% 30.18 in 10.0 mi Calm Calm - N/A   Partly Cloudy
4:53 AM 42.1 °F - 41.0 °F 96% 30.19 in 10.0 mi Calm Calm - N/A   Clear
5:53 AM 43.0 °F 40.3 °F 41.0 °F 93% 30.21 in 10.0 mi SW 4.6 mph - N/A   Mostly Cloudy
6:53 AM 44.1 °F - 41.0 °F 89% 30.22 in 10.0 mi Calm Calm - N/A   Partly Cloudy
7:53 AM 46.0 °F - 41.0 °F 83% 30.23 in 10.0 mi Calm Calm - N/A   Clear
8:53 AM 57.0 °F - 41.0 °F 55% 30.23 in 10.0 mi ESE 6.9 mph - N/A   Scattered Clouds
9:53 AM 62.1 °F - 39.9 °F 44% 30.23 in 10.0 mi SE 6.9 mph - N/A   Partly Cloudy
10:53 AM 66.9 °F - 39.0 °F 36% 30.21 in 10.0 mi SE 9.2 mph - N/A   Mostly Cloudy
11:53 AM 71.1 °F - 41.0 °F 34% 30.20 in 10.0 mi SE 5.8 mph - N/A   Partly Cloudy
12:53 PM 71.1 °F - 39.9 °F 32% 30.17 in 10.0 mi SE 6.9 mph - N/A   Overcast
1:53 PM 71.1 °F - 39.0 °F 31% 30.14 in 10.0 mi ESE 3.5 mph - N/A   Overcast
2:53 PM 71.1 °F - 43.0 °F 36% 30.13 in 10.0 mi ENE 3.5 mph - 0.00 in Rain Light Rain
3:53 PM 68.0 °F - 48.0 °F 49% 30.12 in 10.0 mi Calm Calm - 0.00 in   Overcast
4:53 PM 70.0 °F - 44.1 °F 39% 30.11 in 10.0 mi Calm Calm - N/A   Overcast
5:53 PM 68.0 °F - 48.9 °F 50% 30.11 in 10.0 mi Calm Calm - N/A   Mostly Cloudy
6:53 PM 64.0 °F - 51.1 °F 63% 30.11 in 10.0 mi Calm Calm - N/A   Overcast
7:53 PM 59.0 °F - 53.1 °F 81% 30.09 in 10.0 mi Calm Calm - N/A   Partly Cloudy
8:53 PM 55.9 °F - 51.1 °F 84% 30.09 in 10.0 mi SE 4.6 mph - N/A   Clear
9:53 PM 55.9 °F - 50.0 °F 80% 30.09 in 10.0 mi ESE 4.6 mph - N/A   Clear
10:53 PM 51.1 °F - 50.0 °F 96% 30.09 in 10.0 mi ESE 3.5 mph - N/A   Clear
11:53 PM 52.0 °F - 48.9 °F 89% 30.08 in 10.0 mi SE 5.8 mph - N/A   Clear